Regional Weather Roundup
Issued by NWS

Home | Current Version | Previous Version | Text Only | Print | Product List | Glossary On
Versions: 1 2 3 4 5 6 7 8 9 10 11 12 13 14 15 16 17 18 19 20 21 22 23 24 25 26 27 28 29 30 31 32 33 34 35 36 37 38 39 40 41 42 43 44 45 46 47 48 49 50
000
ASUS44 KLIX 242013
RWRLA
LOUISIANA WEATHER ROUNDUP
NATIONAL WEATHER SERVICE NEW ORLEANS LA
300 PM CDT WED MAY 24 2017

NOTE: "FAIR" INDICATES FEW OR NO CLOUDS BELOW 12,000 FEET WITH NO
      SIGNIFICANT WEATHER AND/OR OBSTRUCTIONS TO VISIBILITY.
      SKY/WX - SKY CONDITION AND SIGNIFICANT WEATHER.
      TMP - AIR TEMPERATURE.    DP   - DEWPOINT TEMPERATURE.
      RH  - RELATIVE HUMIDITY.  PRES - PRESSURE.
      HX  - HEAT INDEX.         WCI  - WIND CHILL INDEX.

*  THESE STATIONS ARE NOT NWS OR FAA STATIONS AND ARE NOT UNDER
   NWS QUALITY CONTROL.

LAZ040-048-061>063-065-066-069-242100-
SOUTHEAST LOUISIANA

CITY           SKY/WX    TMP DP  RH WIND       PRES   REMARKS
N.O. INTL ARPT MOSUNNY   77  53  43 W14       29.69F
N.O. LAKEFRONT SUNNY     77  58  51 W22G30    29.69F
N.O. DOWNTOWN*   N/A     77  51  40 VRB6G16     N/A
RESERVE*       FAIR      79  51  37 W16G22    29.70F
SLIDELL        MOSUNNY   76  50  40 W9        29.67F
BATON ROUGE    MOSUNNY   76  49  38 W16G29    29.71F
BOOTHVILLE     MOSUNNY   76  54  46 NW12G20   29.71S
BELLE CHASSE   PTSUNNY   79  54  41 W15G23    29.69F
BOGALUSA*      MOCLDY    74  50  42 NW12      29.69S
GALLIANO*      PTCLDY    78  47  33 NW17      29.71F
NEW ROADS*     MOCLDY    74  51  44 NW15G23   29.71F
GONZALES*      FAIR      76  47  35 NW13G22   29.70F
HAMMOND*       MOSUNNY   77  43  29 NW17      29.69S
HOUMA*         MOSUNNY   79  54  41 W16       29.72F
PORT FOURCHON* CLEAR     75  52  43 W14G22    29.72F

$$

LAZ041-044-053-054-242100-
SOUTHWEST LOUISIANA

CITY           SKY/WX    TMP DP  RH WIND       PRES   REMARKS
LAKE CHARLES   MOSUNNY   79  48  33 NW24G35   29.74F
LAFAYETTE      MOSUNNY   78  49  35 W21G26    29.73F
PATTERSON      MOSUNNY   77  53  43 W17G24    29.73F
SALT POINT       N/A     77  53  43 W13G24    29.72F
NEW IBERIA     MOSUNNY   78  49  35 NW21G29   29.73F
CHENAULT AIRPK MOSUNNY   77  46  33 NW24G38   29.74F

$$

LAZ027-028-242100-
CENTRAL LOUISIANA

CITY           SKY/WX    TMP DP  RH WIND       PRES   REMARKS
FORT POLK      MOSUNNY   74  48  40 W18G28    29.73F
ALEXANDRIA INT PTSUNNY   74  49  41 NW15G25   29.71F
ALEXANDRIA     PTSUNNY   75  50  41 W15G25    29.71F

$$

LAZ001-002-242100-
NORTHWEST LOUISIANA

CITY           SKY/WX    TMP DP  RH WIND       PRES   REMARKS
SHREVEPORT     MOSUNNY   73  50  44 NW16      29.74F
BARKSDALE AFB  MOSUNNY   73  48  41 NW16      29.74F
DTN SHREVEPORT PTSUNNY   72  50  45 NW14      29.75S

$$

LAZ014-016-242100-
NORTHEAST LOUISIANA

CITY           SKY/WX    TMP DP  RH WIND       PRES   REMARKS
MONROE         PTSUNNY   72  49  44 NW20G30   29.69F
TALLULAH       CLOUDY    68  51  54 NW12      29.68S

$$




USA.gov is the U.S. government's official web portal to all federal, state and local government web resources and services.